Theta_e
348 349 348 349 347 345 346 342 342 346 345 339 339 340 340 341 340 341 341 344 345 346 351 352 353 350 349 349 348 345 345 342 340 339 339 339 346 347 349 351 351 349 346
348 352 352 344 350 350 346 342 344 344 344 344 346 344 345 347 349 347 349 349 351 351 351 350 351 354 353 351 352 351 345 346 344 346 341 346 346 346 347 350 350 339 343
352 350 350 348 349 354 347 345 346 343 343 344 346 352 351 351 346 353 352 352 353 351 350 349 352 353 353 352 347 345 350 349 349 350 343 344 348 343 347 341 346 345 350
347 350 350 351 348 353 351 346 347 347 346 347 345 351 346 345 345 353 353 348 350 351 352 353 350 352 349 347 341 343 344 348 348 348 348 346 349 345 341 342 347 347 347
350 346 346 351 347 353 351 350 348 348 346 347 349 347 348 346 352 350 353 353 353 352 352 349 347 345 342 340 338 342 342 346 344 336 343 348 349 347 342 345 347 344 344
350 344 345 348 353 353 352 353 351 351 350 348 351 348 349 347 353 353 353 354 353 353 353 352 351 346 344 343 340 338 340 345 343 341 346 347 349 346 340 348 350 351 345
351 343 342 347 351 352 351 351 350 347 347 350 350 348 349 349 353 353 353 354 351 350 349 349 348 347 346 346 345 342 343 345 343 346 340 344 344 343 345 348 349 348 345
349 347 343 349 350 349 353 353 353 351 352 353 352 353 353 352 353 352 353 351 347 344 347 346 344 344 347 346 344 341 341 343 347 348 341 348 339 342 348 347 346 346 345
350 347 344 349 350 353 353 353 353 353 352 352 351 352 347 352 354 352 347 343 339 338 338 337 341 344 345 344 342 342 342 343 345 346 345 344 338 344 349 346 344 345 345
348 346 345 347 349 350 351 350 352 352 352 354 354 347 352 353 352 344 339 338 336 336 340 342 341 341 342 348 349 346 346 344 338 344 347 346 343 341 339 339 340 339 339
351 348 345 346 349 349 347 351 348 350 350 354 350 343 354 349 339 340 343 342 340 340 340 341 342 343 348 347 340 338 343 342 340 341 346 347 341 340 342 342 340 339 338
349 351 350 347 348 350 349 347 350 350 348 351 348 338 345 349 347 348 350 347 339 340 341 344 348 346 350 346 341 336 341 340 334 335 346 346 343 339 339 342 339 340 341
348 351 349 348 350 350 350 342 343 345 344 345 345 341 349 352 352 351 353 343 339 346 349 349 347 350 351 345 337 339 338 340 340 341 348 345 339 337 339 338 335 337 340
347 348 348 347 349 350 348 346 349 348 348 347 346 348 346 350 351 351 353 347 352 351 346 347 348 351 349 343 338 338 344 340 343 341 341 343 340 338 335 336 335 336 336
342 345 346 348 348 350 348 346 351 351 349 347 345 344 349 352 351 350 350 351 352 351 348 349 349 351 349 345 347 344 345 343 341 339 338 340 343 341 337 336 336 337 339
342 342 348 348 349 348 347 346 350 351 347 346 346 342 351 349 350 348 347 348 351 349 348 347 347 347 350 348 346 346 340 344 342 343 338 337 342 344 343 340 338 339 343
343 343 348 346 347 350 348 348 348 348 346 347 346 344 348 347 349 348 350 345 350 350 350 347 350 353 350 349 345 348 345 347 346 347 345 347 342 345 345 344 343 341 345
343 343 346 346 345 347 348 345 347 348 345 343 348 345 343 346 352 349 351 352 353 351 348 348 351 349 350 348 345 343 345 344 345 346 348 347 348 346 345 348 347 345 345
342 342 345 346 346 346 349 347 346 346 346 342 343 346 344 343 347 354 350 353 352 349 352 351 348 350 347 344 347 346 343 341 344 345 348 351 351 350 351 352 348 337 340
340 340 343 345 346 345 348 347 346 346 345 344 343 346 344 346 340 349 354 356 353 351 353 350 349 348 347 345 343 341 341 341 341 345 346 348 347 346 347 351 347 334 343
339 339 341 343 346 346 348 347 346 346 344 344 344 344 348 348 348 354 352 352 355 352 352 349 351 351 349 345 342 342 344 338 339 343 348 349 348 346 342 343 349 348 346
341 339 341 339 343 346 346 346 347 344 344 345 345 346 345 349 351 352 353 352 353 351 349 344 339 349 347 346 342 343 338 343 341 337 341 343 346 343 342 339 344 348 350
342 340 340 340 338 345 345 344 344 344 342 346 344 346 347 354 354 353 353 352 349 344 345 343 338 347 346 345 338 341 340 341 341 341 341 341 343 343 342 339 342 343 345
344 342 340 341 339 343 345 343 340 342 347 348 348 346 352 354 353 353 352 353 348 342 339 344 349 349 341 339 338 338 340 342 339 341 339 339 338 343 343 339 340 341 341
348 344 342 341 343 344 342 342 341 340 342 348 350 351 352 352 353 349 353 350 349 349 349 349 348 345 340 340 338 341 340 339 339 340 342 340 336 336 336 341 337 336 334
351 350 344 345 344 344 343 343 344 346 350 351 351 350 349 349 352 351 350 349 349 350 350 349 349 348 347 346 346 344 342 341 341 342 341 338 338 334 334 338 338 336 334
Wind_Speed
21 22 18 17 16 18 17 16 15 14 13 14 14 13 13 14 13 12 12 12 12 11 10 10 10 10 9 8 8 8 9 7 7 10 13 16 18 18 18 21 21 17 18
28 23 19 18 17 18 18 17 15 14 14 14 12 12 11 11 12 11 11 10 10 10 9 9 9 9 10 9 8 8 10 9 9 10 14 16 19 20 20 19 20 20 20
27 24 20 18 18 18 18 17 15 14 14 13 12 12 11 11 11 11 11 11 11 11 10 10 9 9 9 7 8 8 9 9 10 13 13 13 18 18 18 14 19 21 17
29 25 22 19 18 18 17 17 15 13 12 11 11 11 11 11 12 11 11 12 12 11 10 10 9 8 7 6 7 7 7 7 8 12 15 13 11 13 16 19 18 19 17
27 24 23 20 18 17 17 15 14 13 11 11 10 11 12 12 11 12 11 11 12 11 11 10 8 8 8 7 7 8 7 5 4 2 5 14 13 13 16 19 17 18 19
26 23 21 19 18 17 16 15 14 13 13 11 11 11 11 13 11 11 10 11 10 10 10 9 8 7 7 7 6 6 4 9 7 4 12 12 13 15 19 18 18 18 16
28 24 21 19 16 17 16 15 14 14 13 12 12 12 11 12 10 10 10 10 9 8 9 7 6 5 5 5 4 4 4 6 3 7 9 6 11 14 18 17 17 17 17
29 27 24 21 17 17 15 15 14 14 13 12 12 12 11 11 10 9 9 8 7 7 7 6 4 3 3 5 7 7 7 7 4 4 9 15 13 18 19 20 18 17 17
29 28 26 22 17 16 14 14 13 13 12 14 13 11 12 11 9 9 8 8 7 7 6 5 4 2 3 5 10 12 14 18 12 5 12 9 17 19 18 17 18 18 17
28 27 25 21 18 17 14 13 13 11 12 12 12 11 12 11 10 9 8 8 8 7 6 5 3 2 4 8 10 14 15 16 18 13 6 15 20 19 18 19 17 15 16
32 28 25 23 18 17 17 16 14 13 11 12 11 13 12 12 12 11 9 7 5 5 4 2 1 2 5 6 20 25 15 12 12 11 16 15 22 20 20 20 19 17 17
31 31 25 24 24 24 19 19 16 15 14 14 12 14 14 12 11 9 7 6 4 3 1 2 4 3 4 3 7 23 13 11 13 22 20 21 29 22 22 22 19 18 17
32 35 29 26 28 27 23 21 19 17 14 14 11 10 13 12 15 14 10 8 5 3 2 3 6 4 4 4 18 9 7 6 8 12 8 15 21 19 21 21 19 18 17
30 34 36 28 31 30 26 22 22 21 18 15 13 12 12 10 16 17 12 9 3 2 1 4 3 5 5 14 10 9 10 9 16 12 11 20 22 22 19 19 17 17 17
17 28 37 30 32 31 27 25 24 24 24 20 17 14 13 11 17 12 6 6 5 6 3 2 3 4 16 14 10 4 8 12 19 26 15 17 19 21 19 18 17 16 16
23 20 36 29 25 28 24 24 22 28 26 26 19 16 13 13 7 12 8 10 8 8 5 3 5 6 6 2 8 14 14 14 5 6 18 10 14 14 19 19 16 16 18
28 25 37 28 23 28 17 17 18 20 25 25 22 13 17 16 9 11 9 11 10 9 9 2 2 7 5 8 12 19 12 18 2 7 13 15 17 16 15 17 14 14 17
30 29 30 27 23 18 18 19 18 16 18 21 20 18 17 17 12 12 13 11 9 12 3 4 8 8 8 13 16 10 9 14 6 8 8 9 8 15 11 10 12 13 15
30 31 30 25 23 21 18 20 19 19 14 20 18 20 19 17 19 12 13 9 7 6 6 6 10 9 5 11 9 8 8 8 7 15 19 15 12 8 1 9 13 9 15
29 32 30 26 27 28 22 19 22 20 19 17 23 24 23 18 22 19 15 10 9 10 11 15 12 6 4 6 7 5 3 5 7 17 14 11 13 6 0 8 11 10 10
34 33 32 26 30 30 26 23 21 23 21 21 18 27 27 24 21 19 16 15 11 9 7 6 8 7 3 3 2 5 5 5 7 13 20 14 14 10 8 3 10 6 11
39 38 34 34 28 35 33 29 24 23 22 22 22 23 23 25 22 21 19 15 11 8 10 11 8 8 4 2 3 3 1 3 4 3 8 18 12 11 12 12 3 7 19
36 40 39 35 32 36 34 28 26 23 24 24 22 23 24 25 24 24 22 13 14 9 13 16 10 11 9 5 7 4 1 3 1 3 9 10 12 12 14 12 10 8 8
33 40 39 37 37 36 34 31 29 26 20 22 26 28 29 31 22 16 17 20 17 19 20 12 12 12 9 7 6 7 6 3 2 1 2 6 11 15 13 13 11 11 10
35 43 44 39 37 35 36 34 30 29 24 11 11 9 20 17 17 20 11 15 12 13 15 14 14 10 7 5 7 5 8 8 5 3 3 5 12 16 14 11 12 13 12
36 24 33 37 39 39 40 33 27 20 6 5 7 5 4 6 7 10 13 14 18 17 15 11 8 7 7 9 9 9 8 4 6 8 4 5 10 10 13 12 13 14 11
Wind_Direction
145 137 135 130 130 138 138 127 120 125 123 112 111 110 108 104 103 104 105 111 115 120 118 120 124 127 132 126 125 125 131 142 146 143 140 139 140 140 138 139 136 137 137
144 138 136 136 130 138 142 134 138 134 120 110 112 113 114 111 108 107 108 109 117 120 126 126 131 128 126 126 120 119 118 126 128 130 139 138 136 146 150 141 137 137 133
141 139 135 134 134 137 146 148 145 135 123 120 123 123 120 122 117 113 110 111 113 119 123 122 121 119 119 120 115 115 114 116 125 125 123 138 144 151 151 138 135 140 141
140 141 140 139 140 138 146 154 147 140 130 127 126 136 131 124 119 113 110 112 112 107 113 113 116 113 113 103 100 92 92 104 118 152 146 139 148 153 147 143 132 147 146
141 143 141 144 139 140 143 147 150 145 138 132 146 135 131 126 118 121 122 122 114 107 102 97 98 96 95 85 83 92 104 90 86 100 133 148 153 158 161 140 149 148 152
144 141 142 145 141 142 141 145 146 145 146 150 144 140 135 129 128 125 127 121 117 108 102 99 89 79 79 78 86 98 107 58 68 127 133 148 152 150 150 150 152 147 148
147 142 145 145 146 147 150 154 152 149 148 148 146 141 139 138 140 132 130 125 123 116 110 105 102 86 70 56 46 67 58 66 206 307 224 214 156 159 150 153 160 159 156
146 145 145 144 153 147 154 151 150 150 146 148 150 147 147 140 142 135 137 134 136 136 126 125 115 111 76 28 7 11 3 12 354 313 202 174 167 165 164 167 167 162 158
146 146 145 149 152 150 153 151 153 151 151 159 154 157 155 150 149 151 149 144 150 152 145 144 145 139 92 41 21 358 359 1 338 321 198 200 183 172 172 170 168 167 167
145 147 144 148 150 148 152 155 157 160 163 165 162 161 157 160 164 164 156 149 156 159 153 146 128 87 60 36 21 5 22 20 321 297 277 203 189 178 180 175 175 172 172
149 147 149 151 154 156 160 160 160 160 161 168 174 171 172 172 162 155 151 143 167 170 171 160 165 131 84 83 42 31 21 26 251 309 275 234 205 184 189 186 176 179 180
154 158 158 156 156 166 168 170 169 168 178 184 186 183 181 174 175 166 165 172 195 185 217 291 319 89 183 133 355 15 44 54 256 273 262 234 210 194 192 193 183 186 191
160 163 165 165 168 168 173 169 166 173 169 177 179 188 184 185 220 203 196 193 208 219 25 11 352 225 182 77 63 33 101 25 291 237 204 189 209 202 202 197 189 188 195
161 169 170 171 175 174 182 174 170 174 173 177 187 204 211 230 191 190 216 201 153 129 130 302 348 164 110 87 80 91 168 208 164 175 191 200 197 205 210 205 199 197 198
184 172 172 173 173 184 185 185 186 186 186 188 190 196 204 198 188 183 172 160 223 223 243 193 45 120 105 106 324 245 137 232 252 248 238 203 208 203 213 210 202 202 207
175 170 170 176 171 181 184 185 194 197 192 192 188 194 191 194 188 198 200 199 185 182 205 281 352 102 104 25 122 176 165 155 16 296 247 259 223 207 216 217 213 213 210
173 170 164 167 147 158 168 175 157 185 188 195 194 189 195 192 207 196 197 184 200 237 188 194 284 334 64 128 152 169 169 162 343 278 266 270 213 203 211 218 221 224 231
171 173 169 176 183 175 184 190 184 172 193 191 201 198 194 201 193 204 212 230 280 185 163 177 134 86 88 69 121 142 114 167 125 62 226 190 177 209 213 232 214 217 229
175 177 172 178 188 188 194 199 204 199 198 196 211 202 205 216 204 211 206 239 216 159 133 130 140 153 99 90 87 72 28 44 54 65 95 144 147 190 208 189 201 258 230
179 177 178 183 185 191 198 208 212 208 209 220 209 211 216 211 204 207 209 218 184 181 149 115 122 141 131 95 121 92 50 64 103 89 78 99 87 48 88 197 211 259 196
173 172 177 176 183 186 190 197 212 216 218 242 237 219 216 215 202 206 211 223 197 194 193 190 138 159 148 89 136 115 122 100 144 94 91 102 109 102 57 174 203 201 194
170 175 177 184 185 191 192 197 205 218 232 238 239 221 227 208 205 211 214 217 196 184 202 209 210 176 193 173 154 175 191 218 109 158 88 102 121 98 65 47 91 158 181
174 179 182 184 190 193 197 195 200 217 230 234 236 245 218 199 204 208 207 211 209 187 259 234 234 203 177 190 177 182 123 219 234 58 85 99 98 99 90 70 71 95 133
178 183 186 189 191 195 193 194 199 212 222 232 238 241 208 204 194 192 218 217 233 256 242 228 215 227 202 180 168 197 217 182 160 3 180 116 92 126 108 103 110 118 128
174 187 187 192 193 192 197 198 203 212 226 239 229 213 209 208 203 213 218 227 219 221 221 220 226 237 240 213 186 181 205 226 228 186 229 246 131 115 111 123 119 118 118
178 180 183 196 200 197 200 197 208 208 177 114 128 163 200 228 215 209 211 196 190 180 192 201 210 239 251 257 236 219 197 175 192 199 189 213 133 148 133 135 151 143 134